Location: Unspecified
(0.0000°N, 0.0000°E)
Time: 02:08:59
(UTC+00:00)

SKYMED 2 - Visible Passes

Search period start: 06 March 2026 00:00
Search period end: 16 March 2026 00:00
Orbit: 622 x 623 km, 97.9° (Epoch: 5 March)

Date Brightness Start Highest point End Pass type
(mag) Time Alt. Az. Time Alt. Az. Time Alt. Az.
6 Mar 6.4 04:56:17 10° SE 04:59:24 19° ENE 05:02:29 10° NNE visible
6 Mar 6.9 18:42:17 10° NW 18:44:12 13° WNW 18:46:08 10° WSW visible
7 Mar 5.4 05:13:26 10° SE 05:17:22 34° ENE 05:21:17 10° NNE visible
8 Mar 4.1 05:31:02 10° SSE 05:35:20 64° ENE 05:39:37 10° N visible
11 Mar 6.6 04:50:42 10° ESE 04:53:21 16° ENE 04:55:59 10° NE visible
11 Mar 6.7 18:35:35 10° NW 18:38:09 16° WNW 18:40:45 10° WSW visible
12 Mar 5.8 05:07:35 10° SE 05:11:19 28° ENE 05:15:01 10° NNE visible
13 Mar 4.6 05:25:04 10° SSE 05:29:16 51° E 05:33:28 10° N visible
14 Mar 3.6 05:42:54 10° S 05:47:14 85° WSW 05:51:34 10° NNW visible
